Flag for Germany Weather past 2 weeks in Ahrensburg, Schleswig-Holstein, Germany

Now
72 °F

Clear.


Feels Like: 74 °F
Forecast: 63 / 77 °F
Wind: 9 mph from Northeast

Location: Hamburg-Fuhlsbuettel

Current Time: Jul 25, 2014 at 11:29:03 PM

Latest Report: Jul 25, 2014 at 10:50 PM


Visibility: 10 mi

Pressure: 29.95 "Hg

Humidity: 73%

Dew point: 63 °F

Location of AhrensburgLocation

Historic Weather in Ahrensburg — Graph

°F

Ahrensburg temperature yesterday

Maximum temperature yesterday: 77 °F (at 12:50 PM)
Minimum temperature yesterday: 61 °F (at 3:50 AM)
Average temperature yesterday: 69 °F

Past Weeks' High & Low Weather Summary

 TemperatureHumidityPressure
High88 °F (Jul 19, 2:20 PM)100% (Jul 13, 5:50 AM)30.18 "Hg (Jul 13, 5:50 AM)
Low52 °F (Jul 17, 4:20 AM)29% (Jul 19, 6:20 PM)29.65 "Hg (Jul 13, 9:20 PM)
Average69 °F71%29.98 "Hg
* Reported Jul 10 10:20 PM — Jul 25 10:20 PM, Ahrensburg, Weather by CustomWeather, © 2014

Note: Actual official high and low records may vary slightly from our data, if they occured in-between our weather recording intervals... More about our weather records

Advertising

Ahrensburg weather history for previous 24 hours

 ConditionsComfort  
Time TempWeatherWind HumidityBarometerVisibility
10:20 PM
Jul 25
72 °FSunny.7 mph69%29.95 "Hg10 mi
9:50 PM72 °FPassing clouds.6 mph69%29.92 "HgN/A
9:20 PM72 °FPassing clouds.3 mph65%29.92 "HgN/A
8:50 PM73 °FPassing clouds.5 mph57%29.92 "HgN/A
8:20 PM73 °FSunny.8 mph57%29.92 "Hg10 mi
7:50 PM75 °FPassing clouds.7 mph50%29.92 "HgN/A
7:20 PM73 °FPartly sunny.8 mph57%29.95 "HgN/A
6:50 PM73 °FSprinkles. Partly sunny.15 mph69%29.95 "HgN/A
6:20 PM75 °FScattered showers. Partly sunny.1 mph69%29.95 "HgN/A
5:50 PM73 °FPartly sunny.3 mph74%29.95 "HgN/A
5:20 PM73 °FScattered showers. Partly sunny.2 mph74%29.95 "HgN/A
4:50 PM72 °FScattered showers. Partly sunny.8 mph78%29.95 "HgN/A
4:20 PM72 °FThundershowers. Broken clouds.9 mph78%29.95 "HgN/A
3:50 PM73 °FThundershowers. Broken clouds.5 mph74%29.95 "HgN/A
3:20 PM79 °FThundershowers. Broken clouds.6 mph54%29.95 "HgN/A
2:20 PM81 °FBroken clouds.7 mph54%29.95 "HgN/A
1:50 PM77 °FPartly sunny.7 mph57%29.98 "HgN/A
1:20 PM77 °FPartly sunny.8 mph61%29.98 "HgN/A
12:50 PM75 °FPartly sunny.6 mph65%29.98 "HgN/A
12:20 PM75 °FPassing clouds.7 mph69%30.01 "HgN/A
11:50 AM73 °FPassing clouds.10 mph74%30.01 "HgN/A
11:20 AM73 °FPassing clouds.10 mph69%30.01 "HgN/A
10:50 AM72 °FPartly sunny.10 mph78%30.01 "HgN/A
10:20 AM72 °FPartly sunny.10 mph78%30.01 "HgN/A
9:50 AM70 °FPartly sunny.8 mph83%30.01 "HgN/A
9:20 AM70 °FPassing clouds.7 mph83%30.01 "HgN/A
8:50 AM68 °FPassing clouds.8 mph83%30.01 "HgN/A
8:20 AM66 °FPassing clouds.8 mph88%30.01 "HgN/A
7:50 AM66 °FMild.8 mph88%30.01 "HgN/A
7:20 AM66 °FPassing clouds.7 mph88%30.01 "HgN/A
6:50 AM64 °FSunny.6 mph94%30.01 "Hg10 mi
6:20 AM64 °FClear.6 mph94%30.01 "Hg10 mi
5:50 AM64 °FClear.5 mph94%30.01 "Hg10 mi
5:20 AM63 °FClear.2 mph94%30.01 "Hg10 mi
4:50 AM63 °FClear.2 mph94%30.04 "Hg10 mi
4:20 AM63 °FLight rain. Clear.2 mph94%30.04 "HgN/A
3:50 AM63 °FLight rain. Clear.5 mph94%30.04 "HgN/A
3:20 AM63 °FLight rain. Clear.3 mph94%30.04 "HgN/A
2:50 AM63 °FLight rain. Clear.1 mph94%30.04 "HgN/A
2:20 AM63 °FLight rain. Clear.2 mph94%30.04 "HgN/A
1:50 AM63 °FLight rain. Clear.1 mph94%30.04 "HgN/A
1:20 AM64 °FLight rain. Clear.1 mph88%30.07 "HgN/A
12:50 AM64 °FClear.2 mph83%30.07 "Hg10 mi
12:20 AM64 °FClear.5 mph83%30.07 "Hg10 mi
11:50 PM
Jul 24
66 °FLight rain. Clear.5 mph78%30.07 "HgN/A
11:20 PM66 °FLight rain. Clear.6 mph83%30.07 "HgN/A
Weather by CustomWeather, © 2014

See weather overviewHow to use our weather pages